Flag for U.S.A. Weather past 2 weeks in Tuba City, Arizona, U.S.A.

Now
55 °F

Clear.


Feels Like: 55 °F
Forecast: 58 / 86 °F
Wind: 3 mph from East

Location: Grand Canyon National Park Airport

Current Time: Sep 15, 2014 at 11:50:56 PM

Latest Report: Sep 15, 2014 at 10:54 PM


Visibility: 10 mi

Pressure: 30.03 "Hg

Humidity: 67%

Dew point: 44 °F

Location of Tuba CityLocation

Historic Weather in Tuba City — Graph

°F

Tuba City temperature yesterday

Maximum temperature yesterday: 80 °F (at 3:54 PM)
Minimum temperature yesterday: 45 °F (at 5:54 AM)
Average temperature yesterday: 62 °F

Past Weeks' High & Low Weather Summary

 TemperatureHumidityPressure
High84 °F (Sep 2, 2:54 PM)97% (Sep 5, 10:54 PM)30.29 "Hg (Sep 5, 10:54 PM)
Low40 °F (Sep 11, 5:54 AM)12% (Sep 2, 4:54 PM)29.87 "Hg (Sep 9, 5:54 PM)
Average63 °F61%30.02 "Hg
* Reported Sep 1 6:54 AM — Sep 15 9:54 PM, Tuba City, Weather by CustomWeather, © 2014

Note: Actual official high and low records may vary slightly from our data, if they occured in-between our weather recording intervals... More about our weather records

Advertising

Tuba City weather history for previous 24 hours

 ConditionsComfort  
Time TempWeatherWind HumidityBarometerVisibility
9:54 PM
Sep 15
56 °FClear.No wind62%30.03 "Hg10 mi
8:54 PM57 °FClear.No wind64%30.04 "Hg10 mi
7:54 PM63 °FClear.No wind52%30.03 "Hg10 mi
6:54 PM79 °FSunny.No wind26%29.97 "Hg10 mi
5:54 PM81 °FSunny.7 mph21%29.96 "Hg10 mi
4:54 PM81 °FSunny.N/A21%29.97 "Hg10 mi
3:54 PM81 °FPassing clouds.No wind22%29.98 "Hg10 mi
2:54 PM74 °FPartly sunny.3 mph38%30.03 "Hg10 mi
1:54 PM67 °FLight rain. More clouds than sun.10 mph57%30.07 "Hg10 mi
1:04 PM76 °FSunny.10 mph33%30.29 "Hg10 mi
12:54 PM77 °FThundershowers. Sunny.6 mph31%30.02 "Hg10 mi
11:54 AM78 °FSunny.5 mph32%30.02 "Hg10 mi
10:54 AM75 °FSunny.3 mph42%30.03 "Hg10 mi
9:54 AM71 °FSunny.No wind51%30.04 "Hg10 mi
8:54 AM63 °FSunny.No wind65%30.06 "Hg10 mi
7:54 AM50 °FScattered clouds.No wind83%30.09 "Hg10 mi
6:54 AM46 °FPassing clouds.3 mph89%30.06 "Hg10 mi
5:54 AM46 °FClear.3 mph86%30.01 "Hg10 mi
4:54 AM47 °FClear.No wind86%29.99 "Hg10 mi
3:54 AM48 °FClear.No wind83%29.98 "Hg10 mi
2:54 AM48 °FClear.No wind83%29.99 "Hg10 mi
1:54 AM49 °FClear.3 mph80%29.99 "Hg10 mi
12:54 AM51 °FClear.No wind77%29.97 "Hg10 mi
11:54 PM
Sep 14
52 °FClear.No wind75%29.96 "Hg10 mi
Weather by CustomWeather, © 2014

See weather overviewHow to use our weather pages